This demonstration page uses our WeatherBlox Daily Observations layout. Learn more.

40.92945, -100.16068

Hourly Observations for October 30, 2019

Temp ( °F °C ) Dew Point ( °F °C ) Humidity (%) Winds ( mph kmh ) Pressure ( in mb ) Visibility ( mi km ) Precip ( " mm )
12:15 am 00:15 Cloudy with Light Snow 21 -6.1 18 -7.6 89 89 N 12 19 30.55 1035 2.5 4.02335 0 0
12:35 am 00:35 Cloudy with Light Snow 21 -6.1 18 -7.7 89 89 N 12 19 30.54 1034 2.5 4.02335 0 0
12:55 am 00:55 Cloudy with Light Snow 20 -6.5 18 -7.9 90 90 N 12 19 30.55 1034 1.75 2.816345 0 0
1:15 am 01:15 Cloudy with Light Snow 20 -6.7 18 -8 91 91 N 14 22 30.54 1034 3 4.82802 0 0
1:35 am 01:35 Cloudy with Light Snow 20 -6.7 18 -8 91 91 N 12 19 30.54 1034 2 3.21868 0 0
1:55 am 01:55 Cloudy with Light Snow 19 -7 17 -8.5 89 89 N 12 19 30.55 1035 2.5 4.02335 0 0
2:15 am 02:15 Cloudy with Light Snow 19 -7 17 -8.5 89 89 N 10 17 30.56 1035 2.5 4.02335 0.01 0.254
2:35 am 02:35 Cloudy with Light Snow 19 -7 17 -8.4 90 90 N 9 15 30.56 1035 1.5 2.41401 0.01 0.254
2:55 am 02:55 Cloudy with Light Snow 19 -7 17 -8.1 92 92 N 8 13 30.54 1034 1.25 2.011675 0.01 0.254
3:15 am 03:15 Cloudy with Light Snow 19 -7 17 -8.1 92 92 N 9 15 30.54 1034 2 3.21868 0 0
3:35 am 03:35 Cloudy with Light Snow 19 -7 17 -8.5 89 89 N 8 13 30.54 1034 5 8.0467 0 0
3:55 am 03:55 Cloudy with Light Snow 19 -7 16 -8.7 88 88 N 10 17 30.54 1034 4 6.43736 0 0
4:15 am 04:15 Cloudy with Light Snow 19 -7 17 -8.6 89 89 N 9 15 30.54 1034 3 4.82802 0 0
4:35 am 04:35 Cloudy with Light Snow 19 -7 17 -8.5 89 89 N 10 17 30.54 1034 2.5 4.02335 0 0
4:55 am 04:55 Cloudy with Light Snow 19 -7.1 17 -8.5 90 90 N 8 13 30.53 1034 2 3.21868 0 0
5:15 am 05:15 Cloudy with Light Snow 19 -7.1 17 -8.5 90 90 N 14 22 30.53 1034 2.5 4.02335 0 0
5:35 am 05:35 Cloudy with Light Snow 19 -7.1 17 -8.5 90 90 N 10 17 30.54 1034 2.5 4.02335 0 0
5:55 am 05:55 Cloudy with Light Snow 19 -7.1 17 -8.5 90 90 N 12 19 30.54 1034 2.5 4.02335 0 0
6:15 am 06:15 Cloudy with Light Snow 19 -7.2 17 -8.5 91 91 N 10 17 30.54 1034 2 3.21868 0 0
6:35 am 06:35 Cloudy with Light Snow 19 -7.2 16 -8.7 89 89 N 10 17 30.55 1035 2.5 4.02335 0 0
6:55 am 06:55 Cloudy with Light Snow 19 -7.2 17 -8.5 91 91 N 9 15 30.55 1035 2 3.21868 0 0
7:15 am 07:15 Cloudy with Light Snow 19 -7.3 17 -8.6 91 91 N 9 15 30.54 1034 2 3.21868 0 0
7:35 am 07:35 Cloudy with Light Snow 19 -7.3 17 -8.6 91 91 N 8 13 30.55 1035 3 4.82802 0 0
7:55 am 07:55 Cloudy with Light Snow 19 -7.4 16 -9.1 88 88 N 13 20 30.55 1035 3 4.82802 0 0
8:15 am 08:15 Cloudy with Light Snow 19 -7.5 16 -9 89 89 NNW 9 15 30.57 1035 1.5 2.41401 0 0
8:35 am 08:35 Cloudy with Light Snow 19 -7.5 16 -9 89 89 NNW 8 13 30.57 1035 2.5 4.02335 0 0
8:55 am 08:55 Cloudy with Light Snow 19 -7.5 15 -9.2 88 88 N 12 19 30.58 1035 1.75 2.816345 0 0
9:15 am 09:15 Cloudy with Light Snow 19 -7.5 15 -9.2 88 88 NNW 10 17 30.58 1035 2.5 4.02335 0 0
9:35 am 09:35 Cloudy with Mist and Fog 19 -7.4 15 -9.5 85 85 N 13 20 30.57 1035 5 8.0467 0 0
9:55 am 09:55 Cloudy 19 -7 15 -9.5 83 83 N 13 20 30.57 1035 7 11.26538 0 0
10:15 am 10:15 Partly Cloudy 19 -7 14 -9.8 81 81 N 12 19 30.57 1035 10 16.0934 0 0
10:35 am 10:35 Partly Cloudy 19 -7 14 -9.8 81 81 NNW 12 19 30.57 1035 10 16.0934 0 0
10:55 am 10:55 Mostly Cloudy 20 -6.7 14 -9.9 78 78 NNW 10 17 30.57 1035 10 16.0934 0 0
11:15 am 11:15 Cloudy 20 -6.4 15 -9.6 78 78 NNW 12 19 30.56 1035 10 16.0934 0 0
11:35 am 11:35 Mostly Cloudy 22 -5.8 15 -9.5 75 75 NNW 13 20 30.56 1035 10 16.0934 0 0
11:55 am 11:55 Partly Cloudy 23 -5.2 14 -9.8 70 70 NNW 14 22 30.54 1034 10 16.0934 0 0
12:15 pm 12:15 Sunny 23 -4.8 14 -10 67 67 NNW 13 20 30.54 1034 10 16.0934 0 0
12:35 pm 12:35 Partly Cloudy 24 -4.6 15 -9.5 69 69 NW 12 19 30.54 1034 10 16.0934 0 0
12:55 pm 12:55 Mostly Cloudy 24 -4.2 15 -9.4 67 67 NNW 14 22 30.52 1034 10 16.0934 0 0
1:15 pm 13:15 Cloudy 25 -4 15 -9.2 67 67 NNW 9 15 30.51 1033 10 16.0934 0 0
1:35 pm 13:35 Cloudy 25 -4.1 16 -8.9 70 70 NW 13 20 30.5 1033 10 16.0934 0 0
1:55 pm 13:55 Cloudy 25 -4 16 -8.9 69 69 NW 12 19 30.48 1032 10 16.0934 0 0
2:15 pm 14:15 Cloudy 25 -3.8 16 -9.1 67 67 NNW 12 19 30.47 1032 10 16.0934 0 0
2:35 pm 14:35 Cloudy 26 -3.6 16 -8.7 68 68 WNW 8 13 30.45 1031 10 16.0934 0 0
2:55 pm 14:55 Cloudy 26 -3.3 17 -8.3 69 69 WNW 12 19 30.44 1031 10 16.0934 0 0
3:15 pm 15:15 Cloudy 26 -3.1 16 -8.8 65 65 WNW 14 22 30.44 1031 10 16.0934 0 0
3:35 pm 15:35 Cloudy 27 -3 16 -8.7 65 65 WNW 13 20 30.43 1030 10 16.0934 0 0
3:55 pm 15:55 Mostly Cloudy 27 -2.7 16 -8.7 64 64 WNW 13 20 30.42 1030 10 16.0934 0 0
4:15 pm 16:15 Partly Cloudy 27 -2.6 17 -8.4 65 65 WNW 15 24 30.41 1030 10 16.0934 0 0
4:35 pm 16:35 Sunny 27 -2.7 17 -8.5 65 65 W 16 26 30.41 1030 10 16.0934 0 0
4:55 pm 16:55 Sunny 27 -2.7 17 -8.2 66 66 WNW 15 24 30.4 1029 10 16.0934 0 0
5:15 pm 17:15 Sunny 27 -2.8 16 -8.7 64 64 WNW 16 26 30.4 1029 10 16.0934 0 0
5:35 pm 17:35 Sunny 27 -3 16 -8.7 65 65 WNW 14 22 30.4 1029 10 16.0934 0 0
5:55 pm 17:55 Sunny 26 -3.5 16 -8.8 67 67 W 10 17 30.4 1030 10 16.0934 0 0
6:15 pm 18:15 Sunny 24 -4.2 15 -9.4 67 67 W 10 17 30.41 1030 10 16.0934 0 0
6:35 pm 18:35 Sunny 24 -4.7 14 -10 67 67 W 10 17 30.42 1030 10 16.0934 0 0
6:55 pm 18:55 Clear 23 -5 14 -10.2 67 67 WNW 9 15 30.42 1030 10 16.0934 0 0
7:15 pm 19:15 Clear 22 -5.6 13 -10.6 68 68 WNW 9 15 30.43 1030 10 16.0934 0 0
7:35 pm 19:35 Partly Cloudy 21 -5.9 13 -10.6 70 70 W 7 11 30.43 1030 10 16.0934 0 0
7:55 pm 19:55 Partly Cloudy 19 -7.4 12 -11.3 74 74 W 8 13 30.44 1031 10 16.0934 0 0
8:15 pm 20:15 Clear 18 -7.6 12 -11.1 76 76 W 8 13 30.45 1031 10 16.0934 0 0
8:35 pm 20:35 Clear 18 -7.8 12 -11.2 77 77 W 9 15 30.45 1031 10 16.0934 0 0
8:55 pm 20:55 Clear 17 -8.6 11 -11.9 77 77 W 6 9 30.46 1031 10 16.0934 0 0
9:15 pm 21:15 Clear 15 -9.4 10 -12.1 81 81 WSW 5 7 30.46 1031 10 16.0934 0 0
9:35 pm 21:35 Clear 13 -10.3 9 -12.9 81 81 W 5 7 30.47 1032 10 16.0934 0 0
9:55 pm 21:55 Clear 13 -10.6 10 -12.5 86 86 W 5 7 30.47 1032 10 16.0934 0 0
10:15 pm 22:15 Clear 13 -10.8 9 -12.6 87 87 W 3 6 30.47 1032 10 16.0934 0 0
10:35 pm 22:35 Clear 13 -10.6 9 -12.6 85 85 W 6 9 30.47 1032 10 16.0934 0 0
10:55 pm 22:55 Clear 12 -11.3 9 -13 87 87 WNW 6 9 30.48 1032 10 16.0934 0 0
11:15 pm 23:15 Clear 10 -12 7 -13.7 87 87 WNW 9 15 30.49 1033 10 16.0934 0 0
11:35 pm 23:35 Clear 13 -10.7 9 -13 83 83 WNW 10 17 30.48 1032 10 16.0934 0 0
11:55 pm 23:55 Clear 13 -10.8 8 -13.1 83 83 WNW 9 15 30.47 1032 10 16.0934 0 0

Powered by AerisWeather